owner,sensor,date,latitude,longitude,air_temperature,qcFlag 
TCOON,ioos:station:TCOON:005:1,2013-08-21T00:06:00Z,27.6346,-97.2370,27.3,11111222 
TCOON,ioos:station:TCOON:005:1,2013-08-21T00:12:00Z,27.6346,-97.2370,27.3,11111222 
TCOON,ioos:station:TCOON:005:1,2013-08-21T00:18:00Z,27.6346,-97.2370,27.3,11111222 
TCOON,ioos:station:TCOON:005:1,2013-08-21T00:24:00Z,27.6346,-97.2370,27.4,11111222 
TCOON,ioos:station:TCOON:005:1,2013-08-21T00:30:00Z,27.6346,-97.2370,27.4,11111222 
TCOON,ioos:station:TCOON:005:1,2013-08-21T00:36:00Z,27.6346,-97.2370,27.4,11111222 
TCOON,ioos:station:TCOON:005:1,2013-08-21T00:42:00Z,27.6346,-97.2370,27.5,11111222 
TCOON,ioos:station:TCOON:005:1,2013-08-21T00:48:00Z,27.6346,-97.2370,27.6,11111222 
TCOON,ioos:station:TCOON:005:1,2013-08-21T00:54:00Z,27.6346,-97.2370,27.5,11111222 
TCOON,ioos:station:TCOON:005:1,2013-08-21T01:00:00Z,27.6346,-97.2370,27.7,11111222 
TCOON,ioos:station:TCOON:005:1,2013-08-21T01:06:00Z,27.6346,-97.2370,27.6,11111222 
TCOON,ioos:station:TCOON:005:1,2013-08-21T01:12:00Z,27.6346,-97.2370,28.0,11111222 
TCOON,ioos:station:TCOON:005:1,2013-08-21T01:18:00Z,27.6346,-97.2370,28.0,11111222 
TCOON,ioos:station:TCOON:005:1,2013-08-21T01:24:00Z,27.6346,-97.2370,28.0,11111222 
TCOON,ioos:station:TCOON:005:1,2013-08-21T01:30:00Z,27.6346,-97.2370,27.9,11111222 
TCOON,ioos:station:TCOON:005:1,2013-08-21T01:36:00Z,27.6346,-97.2370,27.9,11111222 
TCOON,ioos:station:TCOON:005:1,2013-08-21T01:42:00Z,27.6346,-97.2370,27.9,11111222 
TCOON,ioos:station:TCOON:005:1,2013-08-21T01:48:00Z,27.6346,-97.2370,27.8,11111222 
TCOON,ioos:station:TCOON:005:1,2013-08-21T01:54:00Z,27.6346,-97.2370,27.8,11111222 
TCOON,ioos:station:TCOON:005:1,2013-08-21T02:00:00Z,27.6346,-97.2370,27.9,11111222 
TCOON,ioos:station:TCOON:005:1,2013-08-21T02:06:00Z,27.6346,-97.2370,27.8,11111222 
TCOON,ioos:station:TCOON:005:1,2013-08-21T02:12:00Z,27.6346,-97.2370,27.9,11111222 
TCOON,ioos:station:TCOON:005:1,2013-08-21T02:18:00Z,27.6346,-97.2370,27.9,11111222 
TCOON,ioos:station:TCOON:005:1,2013-08-21T02:24:00Z,27.6346,-97.2370,27.9,11111222 
TCOON,ioos:station:TCOON:005:1,2013-08-21T02:30:00Z,27.6346,-97.2370,27.9,11111222 
TCOON,ioos:station:TCOON:005:1,2013-08-21T02:36:00Z,27.6346,-97.2370,27.9,11111222 
TCOON,ioos:station:TCOON:005:1,2013-08-21T02:42:00Z,27.6346,-97.2370,27.9,11111222 
TCOON,ioos:station:TCOON:005:1,2013-08-21T02:48:00Z,27.6346,-97.2370,27.9,11111222 
TCOON,ioos:station:TCOON:005:1,2013-08-21T02:54:00Z,27.6346,-97.2370,27.9,11111222 
TCOON,ioos:station:TCOON:005:1,2013-08-21T03:00:00Z,27.6346,-97.2370,27.9,11111222 
TCOON,ioos:station:TCOON:005:1,2013-08-21T03:06:00Z,27.6346,-97.2370,28.0,11111222 
TCOON,ioos:station:TCOON:005:1,2013-08-21T03:12:00Z,27.6346,-97.2370,27.9,11111222 
TCOON,ioos:station:TCOON:005:1,2013-08-21T03:18:00Z,27.6346,-97.2370,27.8,11111222 
TCOON,ioos:station:TCOON:005:1,2013-08-21T03:24:00Z,27.6346,-97.2370,27.9,11111222 
TCOON,ioos:station:TCOON:005:1,2013-08-21T03:30:00Z,27.6346,-97.2370,28.0,11111222 
TCOON,ioos:station:TCOON:005:1,2013-08-21T03:36:00Z,27.6346,-97.2370,27.8,11111222 
TCOON,ioos:station:TCOON:005:1,2013-08-21T03:42:00Z,27.6346,-97.2370,28.0,11111222 
TCOON,ioos:station:TCOON:005:1,2013-08-21T03:48:00Z,27.6346,-97.2370,28.1,11111222 
TCOON,ioos:station:TCOON:005:1,2013-08-21T03:54:00Z,27.6346,-97.2370,28.0,11111222 
TCOON,ioos:station:TCOON:005:1,2013-08-21T04:00:00Z,27.6346,-97.2370,28.0,11111222 
TCOON,ioos:station:TCOON:005:1,2013-08-21T04:06:00Z,27.6346,-97.2370,28.1,11111222 
TCOON,ioos:station:TCOON:005:1,2013-08-21T04:12:00Z,27.6346,-97.2370,28.2,11111222 
TCOON,ioos:station:TCOON:005:1,2013-08-21T04:18:00Z,27.6346,-97.2370,28.0,11111222 
TCOON,ioos:station:TCOON:005:1,2013-08-21T04:24:00Z,27.6346,-97.2370,28.0,11111222 
TCOON,ioos:station:TCOON:005:1,2013-08-21T04:30:00Z,27.6346,-97.2370,28.2,11111222 
TCOON,ioos:station:TCOON:005:1,2013-08-21T04:36:00Z,27.6346,-97.2370,28.1,11111222 
TCOON,ioos:station:TCOON:005:1,2013-08-21T04:42:00Z,27.6346,-97.2370,28.1,11111222 
TCOON,ioos:station:TCOON:005:1,2013-08-21T04:48:00Z,27.6346,-97.2370,28.1,11111222 
TCOON,ioos:station:TCOON:005:1,2013-08-21T04:54:00Z,27.6346,-97.2370,28.1,11111222 
TCOON,ioos:station:TCOON:005:1,2013-08-21T05:00:00Z,27.6346,-97.2370,28.1,11111222 
TCOON,ioos:station:TCOON:005:1,2013-08-21T05:06:00Z,27.6346,-97.2370,28.1,11111222 
TCOON,ioos:station:TCOON:005:1,2013-08-21T05:12:00Z,27.6346,-97.2370,28.1,11111222 
TCOON,ioos:station:TCOON:005:1,2013-08-21T05:18:00Z,27.6346,-97.2370,28.1,11111222 
TCOON,ioos:station:TCOON:005:1,2013-08-21T05:24:00Z,27.6346,-97.2370,28.1,11111222 
TCOON,ioos:station:TCOON:005:1,2013-08-21T05:30:00Z,27.6346,-97.2370,28.1,11111222 
TCOON,ioos:station:TCOON:005:1,2013-08-21T05:36:00Z,27.6346,-97.2370,28.2,11111222 
TCOON,ioos:station:TCOON:005:1,2013-08-21T05:42:00Z,27.6346,-97.2370,28.1,11111222 
TCOON,ioos:station:TCOON:005:1,2013-08-21T05:48:00Z,27.6346,-97.2370,28.1,11111222 
TCOON,ioos:station:TCOON:005:1,2013-08-21T05:54:00Z,27.6346,-97.2370,28.1,11111222 
TCOON,ioos:station:TCOON:005:1,2013-08-21T06:00:00Z,27.6346,-97.2370,28.0,11111222 
TCOON,ioos:station:TCOON:005:1,2013-08-21T06:06:00Z,27.6346,-97.2370,28.1,11111222 
TCOON,ioos:station:TCOON:005:1,2013-08-21T06:12:00Z,27.6346,-97.2370,28.1,11111222 
TCOON,ioos:station:TCOON:005:1,2013-08-21T06:18:00Z,27.6346,-97.2370,28.2,11111222 
TCOON,ioos:station:TCOON:005:1,2013-08-21T06:24:00Z,27.6346,-97.2370,28.1,11111222 
TCOON,ioos:station:TCOON:005:1,2013-08-21T06:30:00Z,27.6346,-97.2370,28.1,11111222 
TCOON,ioos:station:TCOON:005:1,2013-08-21T06:36:00Z,27.6346,-97.2370,28.1,11111222 
TCOON,ioos:station:TCOON:005:1,2013-08-21T06:42:00Z,27.6346,-97.2370,28.1,11111222 
TCOON,ioos:station:TCOON:005:1,2013-08-21T06:48:00Z,27.6346,-97.2370,28.1,11111222 
TCOON,ioos:station:TCOON:005:1,2013-08-21T06:54:00Z,27.6346,-97.2370,28.1,11111222 
TCOON,ioos:station:TCOON:005:1,2013-08-21T07:00:00Z,27.6346,-97.2370,28.1,11111222 
TCOON,ioos:station:TCOON:005:1,2013-08-21T07:06:00Z,27.6346,-97.2370,28.1,11111222 
TCOON,ioos:station:TCOON:005:1,2013-08-21T07:12:00Z,27.6346,-97.2370,28.0,11111222 
TCOON,ioos:station:TCOON:005:1,2013-08-21T07:18:00Z,27.6346,-97.2370,28.0,11111222 
TCOON,ioos:station:TCOON:005:1,2013-08-21T07:24:00Z,27.6346,-97.2370,28.1,11111222 
TCOON,ioos:station:TCOON:005:1,2013-08-21T07:30:00Z,27.6346,-97.2370,28.0,11111222 
TCOON,ioos:station:TCOON:005:1,2013-08-21T07:36:00Z,27.6346,-97.2370,28.0,11111222 
TCOON,ioos:station:TCOON:005:1,2013-08-21T07:42:00Z,27.6346,-97.2370,28.0,11111222 
TCOON,ioos:station:TCOON:005:1,2013-08-21T07:48:00Z,27.6346,-97.2370,28.1,11111222 
TCOON,ioos:station:TCOON:005:1,2013-08-21T07:54:00Z,27.6346,-97.2370,28.0,11111222 
TCOON,ioos:station:TCOON:005:1,2013-08-21T08:00:00Z,27.6346,-97.2370,28.0,11111222 
TCOON,ioos:station:TCOON:005:1,2013-08-21T08:06:00Z,27.6346,-97.2370,28.0,11111222 
TCOON,ioos:station:TCOON:005:1,2013-08-21T08:12:00Z,27.6346,-97.2370,28.1,11111222 
TCOON,ioos:station:TCOON:005:1,2013-08-21T08:18:00Z,27.6346,-97.2370,28.1,11111222 
TCOON,ioos:station:TCOON:005:1,2013-08-21T08:24:00Z,27.6346,-97.2370,28.1,11111222 
TCOON,ioos:station:TCOON:005:1,2013-08-21T08:30:00Z,27.6346,-97.2370,28.1,11111222 
TCOON,ioos:station:TCOON:005:1,2013-08-21T08:36:00Z,27.6346,-97.2370,28.1,11111222 
TCOON,ioos:station:TCOON:005:1,2013-08-21T08:42:00Z,27.6346,-97.2370,28.1,11111222 
TCOON,ioos:station:TCOON:005:1,2013-08-21T08:48:00Z,27.6346,-97.2370,28.1,11111222 
TCOON,ioos:station:TCOON:005:1,2013-08-21T08:54:00Z,27.6346,-97.2370,28.0,11111222 
TCOON,ioos:station:TCOON:005:1,2013-08-21T09:00:00Z,27.6346,-97.2370,28.1,11111222 
TCOON,ioos:station:TCOON:005:1,2013-08-21T09:06:00Z,27.6346,-97.2370,28.0,11111222 
TCOON,ioos:station:TCOON:005:1,2013-08-21T09:12:00Z,27.6346,-97.2370,28.1,11111222 
TCOON,ioos:station:TCOON:005:1,2013-08-21T09:18:00Z,27.6346,-97.2370,28.1,11111222 
TCOON,ioos:station:TCOON:005:1,2013-08-21T09:24:00Z,27.6346,-97.2370,28.0,11111222 
TCOON,ioos:station:TCOON:005:1,2013-08-21T09:30:00Z,27.6346,-97.2370,28.0,11111222 
TCOON,ioos:station:TCOON:005:1,2013-08-21T09:36:00Z,27.6346,-97.2370,28.1,11111222 
TCOON,ioos:station:TCOON:005:1,2013-08-21T09:42:00Z,27.6346,-97.2370,28.0,11111222 
TCOON,ioos:station:TCOON:005:1,2013-08-21T09:48:00Z,27.6346,-97.2370,28.1,11111222 
TCOON,ioos:station:TCOON:005:1,2013-08-21T09:54:00Z,27.6346,-97.2370,28.1,11111222 
TCOON,ioos:station:TCOON:005:1,2013-08-21T10:00:00Z,27.6346,-97.2370,28.1,11111222 
TCOON,ioos:station:TCOON:005:1,2013-08-21T10:06:00Z,27.6346,-97.2370,28.1,11111222 
TCOON,ioos:station:TCOON:005:1,2013-08-21T10:12:00Z,27.6346,-97.2370,28.0,11111222 
TCOON,ioos:station:TCOON:005:1,2013-08-21T10:18:00Z,27.6346,-97.2370,28.1,11111222 
TCOON,ioos:station:TCOON:005:1,2013-08-21T10:24:00Z,27.6346,-97.2370,27.9,11111222 
TCOON,ioos:station:TCOON:005:1,2013-08-21T10:30:00Z,27.6346,-97.2370,28.1,11111222 
TCOON,ioos:station:TCOON:005:1,2013-08-21T10:36:00Z,27.6346,-97.2370,28.0,11111222 
TCOON,ioos:station:TCOON:005:1,2013-08-21T10:42:00Z,27.6346,-97.2370,27.8,11111222 
TCOON,ioos:station:TCOON:005:1,2013-08-21T10:48:00Z,27.6346,-97.2370,27.8,11111222 
TCOON,ioos:station:TCOON:005:1,2013-08-21T10:54:00Z,27.6346,-97.2370,27.9,11111222 
TCOON,ioos:station:TCOON:005:1,2013-08-21T11:00:00Z,27.6346,-97.2370,27.9,11111222 
TCOON,ioos:station:TCOON:005:1,2013-08-21T11:06:00Z,27.6346,-97.2370,27.9,11111222 
TCOON,ioos:station:TCOON:005:1,2013-08-21T11:12:00Z,27.6346,-97.2370,27.9,11111222 
TCOON,ioos:station:TCOON:005:1,2013-08-21T11:18:00Z,27.6346,-97.2370,27.8,11111222 
TCOON,ioos:station:TCOON:005:1,2013-08-21T11:24:00Z,27.6346,-97.2370,27.8,11111222 
TCOON,ioos:station:TCOON:005:1,2013-08-21T11:30:00Z,27.6346,-97.2370,27.8,11111222 
TCOON,ioos:station:TCOON:005:1,2013-08-21T11:36:00Z,27.6346,-97.2370,27.8,11111222 
TCOON,ioos:station:TCOON:005:1,2013-08-21T11:42:00Z,27.6346,-97.2370,27.8,11111222 
TCOON,ioos:station:TCOON:005:1,2013-08-21T11:48:00Z,27.6346,-97.2370,27.9,11111222 
TCOON,ioos:station:TCOON:005:1,2013-08-21T11:54:00Z,27.6346,-97.2370,27.8,11111222 
TCOON,ioos:station:TCOON:005:1,2013-08-21T12:00:00Z,27.6346,-97.2370,27.8,11111222 
TCOON,ioos:station:TCOON:005:1,2013-08-21T12:06:00Z,27.6346,-97.2370,27.8,11111222 
TCOON,ioos:station:TCOON:005:1,2013-08-21T12:12:00Z,27.6346,-97.2370,27.7,11111222 
TCOON,ioos:station:TCOON:005:1,2013-08-21T12:18:00Z,27.6346,-97.2370,27.8,11111222 
TCOON,ioos:station:TCOON:005:1,2013-08-21T12:24:00Z,27.6346,-97.2370,27.9,11111222 
TCOON,ioos:station:TCOON:005:1,2013-08-21T12:30:00Z,27.6346,-97.2370,27.9,11111222 
TCOON,ioos:station:TCOON:005:1,2013-08-21T12:36:00Z,27.6346,-97.2370,27.9,11111222 
TCOON,ioos:station:TCOON:005:1,2013-08-21T12:42:00Z,27.6346,-97.2370,27.7,11111222 
TCOON,ioos:station:TCOON:005:1,2013-08-21T12:48:00Z,27.6346,-97.2370,28.2,11111222 
TCOON,ioos:station:TCOON:005:1,2013-08-21T12:54:00Z,27.6346,-97.2370,28.4,11111222 
TCOON,ioos:station:TCOON:005:1,2013-08-21T13:00:00Z,27.6346,-97.2370,28.5,11111222 
TCOON,ioos:station:TCOON:005:1,2013-08-21T13:06:00Z,27.6346,-97.2370,28.5,11111222 
TCOON,ioos:station:TCOON:005:1,2013-08-21T13:12:00Z,27.6346,-97.2370,28.5,11111222 
TCOON,ioos:station:TCOON:005:1,2013-08-21T13:18:00Z,27.6346,-97.2370,28.5,11111222 
TCOON,ioos:station:TCOON:005:1,2013-08-21T13:24:00Z,27.6346,-97.2370,28.5,11111222 
TCOON,ioos:station:TCOON:005:1,2013-08-21T13:30:00Z,27.6346,-97.2370,28.6,11111222 
TCOON,ioos:station:TCOON:005:1,2013-08-21T13:36:00Z,27.6346,-97.2370,28.6,11111222 
TCOON,ioos:station:TCOON:005:1,2013-08-21T13:42:00Z,27.6346,-97.2370,28.5,11111222 
TCOON,ioos:station:TCOON:005:1,2013-08-21T13:48:00Z,27.6346,-97.2370,28.7,11111222 
TCOON,ioos:station:TCOON:005:1,2013-08-21T13:54:00Z,27.6346,-97.2370,28.7,11111222 
TCOON,ioos:station:TCOON:005:1,2013-08-21T14:00:00Z,27.6346,-97.2370,28.6,11111222 
TCOON,ioos:station:TCOON:005:1,2013-08-21T14:06:00Z,27.6346,-97.2370,28.6,11111222 
TCOON,ioos:station:TCOON:005:1,2013-08-21T14:12:00Z,27.6346,-97.2370,28.6,11111222 
TCOON,ioos:station:TCOON:005:1,2013-08-21T14:18:00Z,27.6346,-97.2370,28.6,11111222 
TCOON,ioos:station:TCOON:005:1,2013-08-21T14:24:00Z,27.6346,-97.2370,28.5,11111222 
TCOON,ioos:station:TCOON:005:1,2013-08-21T14:30:00Z,27.6346,-97.2370,28.5,11111222 
TCOON,ioos:station:TCOON:005:1,2013-08-21T14:36:00Z,27.6346,-97.2370,28.6,11111222 
TCOON,ioos:station:TCOON:005:1,2013-08-21T14:42:00Z,27.6346,-97.2370,28.6,11111222 
TCOON,ioos:station:TCOON:005:1,2013-08-21T14:48:00Z,27.6346,-97.2370,28.6,11111222 
TCOON,ioos:station:TCOON:005:1,2013-08-21T14:54:00Z,27.6346,-97.2370,28.6,11111222 
TCOON,ioos:station:TCOON:005:1,2013-08-21T15:00:00Z,27.6346,-97.2370,28.9,11111222 
TCOON,ioos:station:TCOON:005:1,2013-08-21T15:06:00Z,27.6346,-97.2370,28.9,11111222 
TCOON,ioos:station:TCOON:005:1,2013-08-21T15:12:00Z,27.6346,-97.2370,28.8,11111222 
TCOON,ioos:station:TCOON:005:1,2013-08-21T15:18:00Z,27.6346,-97.2370,28.8,11111222 
TCOON,ioos:station:TCOON:005:1,2013-08-21T15:24:00Z,27.6346,-97.2370,29.0,11111222 
TCOON,ioos:station:TCOON:005:1,2013-08-21T15:30:00Z,27.6346,-97.2370,28.8,11111222 
TCOON,ioos:station:TCOON:005:1,2013-08-21T15:36:00Z,27.6346,-97.2370,28.8,11111222 
TCOON,ioos:station:TCOON:005:1,2013-08-21T15:42:00Z,27.6346,-97.2370,28.9,11111222 
TCOON,ioos:station:TCOON:005:1,2013-08-21T15:48:00Z,27.6346,-97.2370,28.9,11111222 
TCOON,ioos:station:TCOON:005:1,2013-08-21T15:54:00Z,27.6346,-97.2370,28.9,11111222 
TCOON,ioos:station:TCOON:005:1,2013-08-21T16:00:00Z,27.6346,-97.2370,29.0,11111222 
TCOON,ioos:station:TCOON:005:1,2013-08-21T16:06:00Z,27.6346,-97.2370,28.9,11111222 
TCOON,ioos:station:TCOON:005:1,2013-08-21T16:12:00Z,27.6346,-97.2370,28.9,11111222 
TCOON,ioos:station:TCOON:005:1,2013-08-21T16:18:00Z,27.6346,-97.2370,29.0,11111222 
TCOON,ioos:station:TCOON:005:1,2013-08-21T16:24:00Z,27.6346,-97.2370,29.0,11111222 
TCOON,ioos:station:TCOON:005:1,2013-08-21T16:30:00Z,27.6346,-97.2370,29.1,11111222 
TCOON,ioos:station:TCOON:005:1,2013-08-21T16:36:00Z,27.6346,-97.2370,29.0,11111222 
TCOON,ioos:station:TCOON:005:1,2013-08-21T16:42:00Z,27.6346,-97.2370,29.0,11111222 
TCOON,ioos:station:TCOON:005:1,2013-08-21T16:48:00Z,27.6346,-97.2370,29.0,11111222 
TCOON,ioos:station:TCOON:005:1,2013-08-21T16:54:00Z,27.6346,-97.2370,28.9,11111222 
TCOON,ioos:station:TCOON:005:1,2013-08-21T17:00:00Z,27.6346,-97.2370,28.9,11111222 
TCOON,ioos:station:TCOON:005:1,2013-08-21T17:06:00Z,27.6346,-97.2370,28.8,11111222 
TCOON,ioos:station:TCOON:005:1,2013-08-21T17:12:00Z,27.6346,-97.2370,28.8,11111222 
TCOON,ioos:station:TCOON:005:1,2013-08-21T17:18:00Z,27.6346,-97.2370,28.9,11111222 
TCOON,ioos:station:TCOON:005:1,2013-08-21T17:24:00Z,27.6346,-97.2370,29.0,11111222 
TCOON,ioos:station:TCOON:005:1,2013-08-21T17:30:00Z,27.6346,-97.2370,29.0,11111222 
TCOON,ioos:station:TCOON:005:1,2013-08-21T17:36:00Z,27.6346,-97.2370,29.0,11111222 
TCOON,ioos:station:TCOON:005:1,2013-08-21T17:42:00Z,27.6346,-97.2370,29.0,11111222 
TCOON,ioos:station:TCOON:005:1,2013-08-21T17:48:00Z,27.6346,-97.2370,29.0,11111222 
TCOON,ioos:station:TCOON:005:1,2013-08-21T17:54:00Z,27.6346,-97.2370,29.0,11111222 
TCOON,ioos:station:TCOON:005:1,2013-08-21T18:00:00Z,27.6346,-97.2370,28.9,11111222 
TCOON,ioos:station:TCOON:005:1,2013-08-21T18:06:00Z,27.6346,-97.2370,29.0,11111222 
TCOON,ioos:station:TCOON:005:1,2013-08-21T18:12:00Z,27.6346,-97.2370,28.9,11111222 
TCOON,ioos:station:TCOON:005:1,2013-08-21T18:18:00Z,27.6346,-97.2370,29.0,11111222 
TCOON,ioos:station:TCOON:005:1,2013-08-21T18:24:00Z,27.6346,-97.2370,28.9,11111222 
TCOON,ioos:station:TCOON:005:1,2013-08-21T18:30:00Z,27.6346,-97.2370,29.0,11111222 
TCOON,ioos:station:TCOON:005:1,2013-08-21T18:36:00Z,27.6346,-97.2370,29.1,11111222 
TCOON,ioos:station:TCOON:005:1,2013-08-21T18:42:00Z,27.6346,-97.2370,29.1,11111222 
TCOON,ioos:station:TCOON:005:1,2013-08-21T18:48:00Z,27.6346,-97.2370,29.0,11111222 
TCOON,ioos:station:TCOON:005:1,2013-08-21T18:54:00Z,27.6346,-97.2370,29.1,11111222 
TCOON,ioos:station:TCOON:005:1,2013-08-21T19:00:00Z,27.6346,-97.2370,29.1,11111222 
TCOON,ioos:station:TCOON:005:1,2013-08-21T19:06:00Z,27.6346,-97.2370,29.1,11111222 
TCOON,ioos:station:TCOON:005:1,2013-08-21T19:12:00Z,27.6346,-97.2370,29.1,11111222 
TCOON,ioos:station:TCOON:005:1,2013-08-21T19:18:00Z,27.6346,-97.2370,29.2,11111222 
TCOON,ioos:station:TCOON:005:1,2013-08-21T19:24:00Z,27.6346,-97.2370,29.2,11111222 
TCOON,ioos:station:TCOON:005:1,2013-08-21T19:30:00Z,27.6346,-97.2370,29.2,11111222 
TCOON,ioos:station:TCOON:005:1,2013-08-21T19:36:00Z,27.6346,-97.2370,29.4,11111222 
TCOON,ioos:station:TCOON:005:1,2013-08-21T19:42:00Z,27.6346,-97.2370,29.1,11111222 
TCOON,ioos:station:TCOON:005:1,2013-08-21T19:48:00Z,27.6346,-97.2370,29.2,11111222 
TCOON,ioos:station:TCOON:005:1,2013-08-21T19:54:00Z,27.6346,-97.2370,29.2,11111222 
TCOON,ioos:station:TCOON:005:1,2013-08-21T20:00:00Z,27.6346,-97.2370,29.4,11111222 
TCOON,ioos:station:TCOON:005:1,2013-08-21T20:06:00Z,27.6346,-97.2370,29.1,11111222 
TCOON,ioos:station:TCOON:005:1,2013-08-21T20:12:00Z,27.6346,-97.2370,29.2,11111222 
TCOON,ioos:station:TCOON:005:1,2013-08-21T20:18:00Z,27.6346,-97.2370,29.2,11111222 
TCOON,ioos:station:TCOON:005:1,2013-08-21T20:24:00Z,27.6346,-97.2370,29.1,11111222 
TCOON,ioos:station:TCOON:005:1,2013-08-21T20:30:00Z,27.6346,-97.2370,29.2,11111222 
TCOON,ioos:station:TCOON:005:1,2013-08-21T20:36:00Z,27.6346,-97.2370,29.3,11111222 
TCOON,ioos:station:TCOON:005:1,2013-08-21T20:42:00Z,27.6346,-97.2370,29.5,11111222 
TCOON,ioos:station:TCOON:005:1,2013-08-21T20:48:00Z,27.6346,-97.2370,29.3,11111222 
TCOON,ioos:station:TCOON:005:1,2013-08-21T20:54:00Z,27.6346,-97.2370,29.2,11111222 
TCOON,ioos:station:TCOON:005:1,2013-08-21T21:00:00Z,27.6346,-97.2370,29.2,11111222 
TCOON,ioos:station:TCOON:005:1,2013-08-21T21:06:00Z,27.6346,-97.2370,29.5,11111222 
TCOON,ioos:station:TCOON:005:1,2013-08-21T21:12:00Z,27.6346,-97.2370,29.6,11111222 
TCOON,ioos:station:TCOON:005:1,2013-08-21T21:18:00Z,27.6346,-97.2370,29.3,11111222 
TCOON,ioos:station:TCOON:005:1,2013-08-21T21:24:00Z,27.6346,-97.2370,29.4,11111222 
TCOON,ioos:station:TCOON:005:1,2013-08-21T21:30:00Z,27.6346,-97.2370,29.4,11111222 
TCOON,ioos:station:TCOON:005:1,2013-08-21T21:36:00Z,27.6346,-97.2370,29.2,11111222 
TCOON,ioos:station:TCOON:005:1,2013-08-21T21:42:00Z,27.6346,-97.2370,29.4,11111222 
TCOON,ioos:station:TCOON:005:1,2013-08-21T21:48:00Z,27.6346,-97.2370,29.3,11111222 
TCOON,ioos:station:TCOON:005:1,2013-08-21T21:54:00Z,27.6346,-97.2370,29.4,11111222 
TCOON,ioos:station:TCOON:005:1,2013-08-21T22:00:00Z,27.6346,-97.2370,29.6,11111222 
TCOON,ioos:station:TCOON:005:1,2013-08-21T22:06:00Z,27.6346,-97.2370,29.4,11111222 
TCOON,ioos:station:TCOON:005:1,2013-08-21T22:12:00Z,27.6346,-97.2370,29.3,11111222 
TCOON,ioos:station:TCOON:005:1,2013-08-21T22:18:00Z,27.6346,-97.2370,29.4,11111222 
TCOON,ioos:station:TCOON:005:1,2013-08-21T22:24:00Z,27.6346,-97.2370,29.3,11111222 
TCOON,ioos:station:TCOON:005:1,2013-08-21T22:30:00Z,27.6346,-97.2370,29.5,11111222 
TCOON,ioos:station:TCOON:005:1,2013-08-21T22:36:00Z,27.6346,-97.2370,29.3,11111222 
TCOON,ioos:station:TCOON:005:1,2013-08-21T22:42:00Z,27.6346,-97.2370,29.4,11111222 
TCOON,ioos:station:TCOON:005:1,2013-08-21T22:48:00Z,27.6346,-97.2370,29.3,11111222 
TCOON,ioos:station:TCOON:005:1,2013-08-21T22:54:00Z,27.6346,-97.2370,29.5,11111222 
TCOON,ioos:station:TCOON:005:1,2013-08-21T23:00:00Z,27.6346,-97.2370,29.3,11111222 
TCOON,ioos:station:TCOON:005:1,2013-08-21T23:06:00Z,27.6346,-97.2370,29.5,11111222 
TCOON,ioos:station:TCOON:005:1,2013-08-21T23:12:00Z,27.6346,-97.2370,29.3,11111222 
TCOON,ioos:station:TCOON:005:1,2013-08-21T23:18:00Z,27.6346,-97.2370,29.4,11111222 
TCOON,ioos:station:TCOON:005:1,2013-08-21T23:24:00Z,27.6346,-97.2370,29.4,11111222 
TCOON,ioos:station:TCOON:005:1,2013-08-21T23:30:00Z,27.6346,-97.2370,29.3,11111222 
TCOON,ioos:station:TCOON:005:1,2013-08-21T23:36:00Z,27.6346,-97.2370,29.4,11111222 
TCOON,ioos:station:TCOON:005:1,2013-08-21T23:42:00Z,27.6346,-97.2370,29.5,11111222 
TCOON,ioos:station:TCOON:005:1,2013-08-21T23:48:00Z,27.6346,-97.2370,29.3,11111222 
TCOON,ioos:station:TCOON:005:1,2013-08-21T23:54:00Z,27.6346,-97.2370,29.3,11111222 
TCOON,ioos:station:TCOON:005:1,2013-08-22T00:00:00Z,27.6346,-97.2370,29.5,11111222 
TCOON,ioos:station:TCOON:005:1,2013-08-22T00:06:00Z,27.6346,-97.2370,29.4,11111222 
TCOON,ioos:station:TCOON:005:1,2013-08-22T00:12:00Z,27.6346,-97.2370,29.3,11111222 
TCOON,ioos:station:TCOON:005:1,2013-08-22T00:18:00Z,27.6346,-97.2370,29.3,11111222 
TCOON,ioos:station:TCOON:005:1,2013-08-22T00:24:00Z,27.6346,-97.2370,29.2,11111222 
TCOON,ioos:station:TCOON:005:1,2013-08-22T00:30:00Z,27.6346,-97.2370,29.3,11111222 
TCOON,ioos:station:TCOON:005:1,2013-08-22T00:36:00Z,27.6346,-97.2370,29.3,11111222 
TCOON,ioos:station:TCOON:005:1,2013-08-22T00:42:00Z,27.6346,-97.2370,29.1,11111222 
TCOON,ioos:station:TCOON:005:1,2013-08-22T00:48:00Z,27.6346,-97.2370,29.1,11111222 
TCOON,ioos:station:TCOON:005:1,2013-08-22T00:54:00Z,27.6346,-97.2370,29.0,11111222 
TCOON,ioos:station:TCOON:005:1,2013-08-22T01:00:00Z,27.6346,-97.2370,29.0,11111222 
TCOON,ioos:station:TCOON:005:1,2013-08-22T01:06:00Z,27.6346,-97.2370,29.1,11111222 
TCOON,ioos:station:TCOON:005:1,2013-08-22T01:12:00Z,27.6346,-97.2370,29.0,11111222 
TCOON,ioos:station:TCOON:005:1,2013-08-22T01:18:00Z,27.6346,-97.2370,28.9,11111222 
TCOON,ioos:station:TCOON:005:1,2013-08-22T01:24:00Z,27.6346,-97.2370,28.9,11111222 
TCOON,ioos:station:TCOON:005:1,2013-08-22T01:30:00Z,27.6346,-97.2370,28.9,11111222 
TCOON,ioos:station:TCOON:005:1,2013-08-22T01:36:00Z,27.6346,-97.2370,28.9,11111222 
TCOON,ioos:station:TCOON:005:1,2013-08-22T01:42:00Z,27.6346,-97.2370,29.0,11111222 
TCOON,ioos:station:TCOON:005:1,2013-08-22T01:48:00Z,27.6346,-97.2370,29.0,11111222 
TCOON,ioos:station:TCOON:005:1,2013-08-22T01:54:00Z,27.6346,-97.2370,29.1,11111222 
TCOON,ioos:station:TCOON:005:1,2013-08-22T02:00:00Z,27.6346,-97.2370,28.9,11111222 
TCOON,ioos:station:TCOON:005:1,2013-08-22T02:06:00Z,27.6346,-97.2370,28.9,11111222 
TCOON,ioos:station:TCOON:005:1,2013-08-22T02:12:00Z,27.6346,-97.2370,28.9,11111222 
TCOON,ioos:station:TCOON:005:1,2013-08-22T02:18:00Z,27.6346,-97.2370,28.9,11111222 
TCOON,ioos:station:TCOON:005:1,2013-08-22T02:24:00Z,27.6346,-97.2370,28.8,11111222 
TCOON,ioos:station:TCOON:005:1,2013-08-22T02:30:00Z,27.6346,-97.2370,28.9,11111222 
TCOON,ioos:station:TCOON:005:1,2013-08-22T02:36:00Z,27.6346,-97.2370,28.8,11111222 
TCOON,ioos:station:TCOON:005:1,2013-08-22T02:42:00Z,27.6346,-97.2370,28.7,11111222 
TCOON,ioos:station:TCOON:005:1,2013-08-22T02:48:00Z,27.6346,-97.2370,28.7,11111222 
TCOON,ioos:station:TCOON:005:1,2013-08-22T02:54:00Z,27.6346,-97.2370,28.7,11111222 
TCOON,ioos:station:TCOON:005:1,2013-08-22T03:00:00Z,27.6346,-97.2370,28.7,11111222 
TCOON,ioos:station:TCOON:005:1,2013-08-22T03:06:00Z,27.6346,-97.2370,28.7,11111222 
TCOON,ioos:station:TCOON:005:1,2013-08-22T03:12:00Z,27.6346,-97.2370,28.7,11111222 
TCOON,ioos:station:TCOON:005:1,2013-08-22T03:18:00Z,27.6346,-97.2370,28.6,11111222 
TCOON,ioos:station:TCOON:005:1,2013-08-22T03:24:00Z,27.6346,-97.2370,28.6,11111222 
TCOON,ioos:station:TCOON:005:1,2013-08-22T03:30:00Z,27.6346,-97.2370,28.6,11111222 
TCOON,ioos:station:TCOON:005:1,2013-08-22T03:36:00Z,27.6346,-97.2370,28.7,11111222 
TCOON,ioos:station:TCOON:005:1,2013-08-22T03:42:00Z,27.6346,-97.2370,28.6,11111222 
TCOON,ioos:station:TCOON:005:1,2013-08-22T03:48:00Z,27.6346,-97.2370,28.5,11111222 
TCOON,ioos:station:TCOON:005:1,2013-08-22T03:54:00Z,27.6346,-97.2370,28.6,11111222 
TCOON,ioos:station:TCOON:005:1,2013-08-22T04:00:00Z,27.6346,-97.2370,28.6,11111222 
TCOON,ioos:station:TCOON:005:1,2013-08-22T04:06:00Z,27.6346,-97.2370,28.6,11111222 
TCOON,ioos:station:TCOON:005:1,2013-08-22T04:12:00Z,27.6346,-97.2370,28.7,11111222 
TCOON,ioos:station:TCOON:005:1,2013-08-22T04:18:00Z,27.6346,-97.2370,28.6,11111222 
TCOON,ioos:station:TCOON:005:1,2013-08-22T04:24:00Z,27.6346,-97.2370,28.6,11111222 